Location: Balaclava NSW 2575, Australia
(34.4510°S, 150.4953°E)
Time: 12:34:26
(UTC+10:00)

Tiros 1 - Visible Passes

Search period start: 13 June 2021 00:00
Search period end: 23 June 2021 00:00
Orbit: 630 x 664 km, 48.4° (Epoch: 12 June)

Date Brightness Start Highest point End Pass type
(mag) Time Alt. Az. Time Alt. Az. Time Alt. Az.
13 Jun 9.2 04:50:10 17° SSE 04:50:10 17° SSE 04:53:08 10° SE visible
13 Jun 7.8 06:28:31 10° SW 06:33:05 47° SSE 06:37:34 10° ENE visible
14 Jun 8.7 05:15:05 22° S 05:16:31 25° SSE 05:20:24 10° ESE visible
15 Jun 10.0 04:02:22 11° SE 04:02:22 11° SE 04:02:47 10° SE visible
15 Jun 7.9 05:40:02 21° SSW 05:42:49 44° SSE 05:47:16 10° ENE visible
16 Jun 9.1 04:27:22 22° SE 04:27:22 22° SE 04:30:03 10° ESE visible
16 Jun 7.1 06:05:02 15° SW 06:08:53 86° NW 06:13:31 10° NE visible
17 Jun 8.0 04:52:25 41° SSE 04:52:34 41° SSE 04:56:58 10° E visible
17 Jun 8.0 06:30:25 10° WSW 06:34:41 35° NW 06:38:53 10° NNE visible
18 Jun 7.0 05:17:31 52° SW 05:18:38 87° SE 05:23:18 10° NE visible
19 Jun 9.5 04:05:00 20° E 04:05:00 20° E 04:06:40 10° E visible
19 Jun 7.8 05:42:41 27° W 05:44:29 39° NW 05:48:47 10° NNE visible
20 Jun 8.5 04:30:15 37° ENE 04:30:15 37° ENE 04:33:04 10° NE visible
20 Jun 9.0 06:07:56 12° W 06:10:05 15° NW 06:12:49 10° NNW visible
21 Jun 8.2 04:55:32 34° N 04:55:32 34° N 04:58:39 10° NNE visible
22 Jun 9.0 05:20:53 16° NW 05:20:53 16° NW 05:22:56 10° N visible
22 Jun 9.6 19:25:28 10° NNW 19:26:11 13° N 19:26:11 13° N visible
